Regional Weather Roundup
Issued by NWS Kansas City/Pleasant Hill, MO

Home | Current Version | Previous Version | Graphics & Text | Print | Product List | Glossary Off
Versions: 1 2 3 4 5 6 7 8 9 10 11 12 13 14 15 16 17 18 19 20 21 22 23 24 25 26 27 28 29 30 31 32 33 34 35 36 37 38 39 40 41 42 43 44 45 46 47 48 49 50

000
ASUS43 KEAX 290110
RWREAX

WEATHER ROUNDUP FOR EASTERN KANSAS AND NORTHWEST MISSOURI
NATIONAL WEATHER SERVICE KANSAS CITY/PLEASANT HILL MO
700 PM CST FRI NOV 28 2014

KSZ040-057-103>105-MOZ028-029-037-043-290200-
...KANSAS CITY METROPOLITAN AREA...

CITY           SKY/WX    TMP DP  RH WIND       PRES   REMARKS
K.C. INTL      MOCLDY    53  35  50 S18       29.76F
K.C. DOWNTOWN  CLEAR     55  35  47 S12       29.77F
LEES SUMMIT    PTCLDY    52  34  50 SW12G22   29.80F
OLATHE - IXD   PTCLDY    50  35  56 S10       29.80S
OLATHE - OJC   PTCLDY    51  35  54 S10       29.79F
LAWRENCE       MOCLDY    51  34  52 S8        29.78F

$$

MOZ001>008-011>017-020>025-030>033-038>040-044>046-053-054-290200-
...NORTHERN AND CENTRAL MISSOURI...

CITY           SKY/WX    TMP DP  RH WIND       PRES   REMARKS
ST. JOSEPH     MOCLDY    45  33  63 S7        29.74F
MOSBY          CLEAR     52  34  50 S5        29.78S
WARRENSBURG    PTCLDY    50  34  53 S8        29.81F
WHITEMAN AFB   PTCLDY    53  36  53 SW15      29.81F
CLINTON        PTCLDY    52  37  58 S6        29.86F
SEDALIA        PTCLDY    50  36  58 S8        29.84F
WARSAW         NOT AVBL
MARSHALL       FAIR      52  37  58 S7        29.83S
CHILLICOTHE      N/A     47  33  58 S5        29.79F
KIRKSVILLE     CLEAR     39  32  76 SE7       29.80F WCI  34

$$

MOZ041-047>049-056>058-063>065-088>090-097-290200-
...EASTERN AND SOUTHERN MISSOURI...

CITY           SKY/WX    TMP DP  RH WIND       PRES   REMARKS
ST. LOUIS INTL PTCLDY    47  33  58 S13       29.93F
SPIRIT OF STL  PTCLDY    47  32  56 S7        29.91F
COLUMBIA       CLEAR     48  34  58 S10       29.85S
JEFFERSON CITY CLEAR     50  33  52 E8        29.87S
MEXICO         CLEAR     45  37  76 S8        29.85S
ROLLA          PTCLDY    48  33  56 S14       29.87F
LEBANON        CLEAR     50  34  53 S9        29.91R
OSAGE BEACH    CLEAR     54  34  47 S10       29.88R
SPRINGFIELD    CLEAR     53  35  50 S13       29.89R
BRANSON        CLEAR     50  36  57 S9        29.94F
JOPLIN         PTCLDY    57  38  48 S16       29.89R
WEST PLAINS    CLEAR     47  32  56 S10G20    29.98F

$$

IAZ060-094-KSZ022-034>040-054-083-096-NEZ052-066-093-290200-
...KANSAS...SOUTHEAST NEBRASKA AND IOWA...

CITY           SKY/WX    TMP DP  RH WIND       PRES   REMARKS
TOPEKA         CLOUDY    53  34  48 S5        29.78S
MANHATTAN      CLOUDY    53  35  50 SW8       29.75S
EMPORIA        CLOUDY    50  35  56 S9        29.80S
CHANUTE        CLOUDY    53  38  56 S10       29.84F
WICHITA        PTCLDY    52  37  56 S12       29.81S
OMAHA          CLOUDY    44  32  62 S8        29.67F
LINCOLN        MOCLDY    52  32  46 S12       29.66F
FALLS CITY     MOCLDY    45  32  60 SE6       29.71F
LAMONI         CLEAR     42  31  64 S7        29.74F
DES MOINES     CLEAR     40  30  67 SE8       29.74F WCI  34

$$




USA.gov is the U.S. government's official web portal to all federal, state and local government web resources and services.